This is the latest recevied weather packets stored in our database for station/object KC5DAQ-27. If no packets are shown the sender has not sent any weather packets the latest 1 day(s).
| Time | Temp. | Humidity | Pressure | Rain* | Wind** | Luminosity | Snow |
|---|---|---|---|---|---|---|---|
| 1778076881 | 25° C | 95% | 1000.8 hPa | 0 mm | - | 157 W/m² | - |
| 1778076820 | 25° C | 95% | 1000.9 hPa | 0 mm | - | 153 W/m² | - |
| 1778076758 | 25° C | 95% | 1000.9 hPa | 0 mm | - | 151 W/m² | - |
| 1778076574 | 25° C | 95% | 1000.9 hPa | 0 mm | - | 139 W/m² | - |
| 1778076390 | 25° C | 95% | 1000.8 hPa | 0 mm | - | 134 W/m² | - |
| 1778076328 | 24.44° C | 95% | 1000.8 hPa | 0 mm | - | 142 W/m² | - |
| 1778076205 | 24.44° C | 95% | 1000.7 hPa | 0 mm | - | 164 W/m² | - |
| 1778076082 | 24.44° C | 95% | 1000.8 hPa | 0 mm | - | 174 W/m² | - |
| 1778075837 | 24.44° C | 96% | 1000.9 hPa | 0 mm | - | 169 W/m² | - |
| 1778075591 | 24.44° C | 96% | 1000.9 hPa | 0 mm | - | 172 W/m² | - |
| 1778075468 | 24.44° C | 96% | 1001 hPa | 0 mm | - | 151 W/m² | - |
| 1778075345 | 24.44° C | 96% | 1001 hPa | 0 mm | - | 171 W/m² | - |
| 1778074984 | 24.44° C | 96% | 1001 hPa | 0 mm | - | 165 W/m² | - |
| 1778074744 | 24.44° C | 96% | 1001.1 hPa | 0 mm | - | 174 W/m² | - |
| 1778074623 | 24.44° C | 96% | 1001.2 hPa | 0 mm | - | 169 W/m² | - |
| 1778074562 | 24.44° C | 96% | 1001.2 hPa | 0 mm | - | 178 W/m² | - |
| 1778073904 | 24.44° C | 96% | 1001.2 hPa | 0 mm | - | 130 W/m² | - |
| 1778073723 | 24.44° C | 96% | 1001.1 hPa | 0 mm | - | 139 W/m² | - |
| 1778073542 | 24.44° C | 96% | 1001.1 hPa | 0 mm | - | 157 W/m² | - |
| 1778073122 | 24.44° C | 96% | 1001.1 hPa | 0 mm | - | 123 W/m² | - |
| 1778072942 | 24.44° C | 96% | 1001.1 hPa | 0 mm | - | 106 W/m² | - |
| 1778072823 | 24.44° C | 96% | 1001.1 hPa | 0 mm | - | 100 W/m² | - |
| 1778072584 | 24.44° C | 96% | 1001.2 hPa | 0 mm | - | 86 W/m² | - |
| 1778072283 | 23.89° C | 96% | 1001.2 hPa | 0 mm | - | 72 W/m² | - |
| 1778071864 | 23.89° C | 96% | 1001 hPa | 0 mm | - | 74 W/m² | - |
* Rain latest hour (hover to see other rain measurements)
** Current wind speed in m/s (hover to see current wind gust speed)